sat.trackr.live / text

‹ back to catalog

GLOBALSTAR M086

NORAD 38045 · 2011-080F

PAYLOAD ACTIVE UNKNOWN

§ Identity

Operator
Country
GLOB
Launch date
2011-12-28
Launch site
TYMSC
Launch vehicle
Mass (kg)
RCS (m²)
4.52

Purposes: comms

External: N2YO · Heavens-Above · Gunter

§ Orbital elements

Epoch: 2026-09-19T03:49:00.893568Z

Period
114.08 min
Inclination
51.9909°
Eccentricity
0.0000559
Mean motion
12.62289248 rev/d
Perigee alt
1,413.1 km
Apogee alt
1,413.9 km
Semi-major
7,791.6 km
B*
9.0058e-5
RAAN
42.2173°
Arg perigee
229.8712°
Mean anomaly
301.2429°
Rev number
68,152

§ Raw data

GLOBALSTAR M0861 38045U 11080F   26262.15903812 -.00000088  00000+0  90058-4 0  99992 38045  51.9909  42.2173 0000559 229.8712 301.2429 12.62289248681521

JSON: /api/v1/satellites/38045 · /tle

For live sub-satellite position, see the globe view (requires WebGL).

§ Visibility from observer

Set your observer location to see the next 7 days of passes ≥ 10°. The values pass through the URL so the page stays shareable.

No JS? Fill the form by hand. The geolocation button needs JavaScript.